This is the latest recevied weather packets stored in our database for station/object KE1THD. If no packets are shown the sender has not sent any weather packets the latest 10 day(s).
| Time | Temp. | Humidity | Pressure | Rain* | Wind** | Luminosity | Snow |
|---|---|---|---|---|---|---|---|
| 1777326720 | 23.89° C | 67% | 1000.8 hPa | 0 mm | - | 262 W/m² | - |
| 1777326417 | 23.89° C | 67% | 1000.6 hPa | 0 mm | - | 428 W/m² | - |
| 1777326115 | 23.33° C | 68% | 1000.3 hPa | 0 mm | - | 435 W/m² | - |
| 1777325813 | 23.89° C | 68% | 1000.4 hPa | 0 mm | - | 430 W/m² | - |
| 1777325510 | 23.33° C | 69% | 1000.2 hPa | 0 mm | - | 454 W/m² | - |
| 1777325208 | 22.78° C | 71% | 1000.4 hPa | 0 mm | - | 465 W/m² | - |
| 1777324904 | 23.33° C | 70% | 1000.4 hPa | 0 mm | - | 472 W/m² | - |
| 1777324602 | 22.78° C | 71% | 1000.6 hPa | 0 mm | - | 490 W/m² | - |
| 1777324299 | 22.78° C | 71% | 1000.6 hPa | 0 mm | - | 491 W/m² | - |
| 1777323997 | 22.22° C | 72% | 1000.5 hPa | 0 mm | - | 330 W/m² | - |
| 1777323694 | 22.22° C | 74% | 1000.4 hPa | 0 mm | - | 241 W/m² | - |
| 1777323391 | 21.67° C | 76% | 1000.6 hPa | 0 mm | - | 199 W/m² | - |
| 1777323089 | 21.67° C | 75% | 1000.5 hPa | 0 mm | - | 133 W/m² | - |
| 1777322787 | 21.67° C | 75% | 1000.5 hPa | 0 mm | - | 177 W/m² | - |
| 1777322484 | 21.67° C | 75% | 1000.3 hPa | 0 mm | - | 188 W/m² | - |
| 1777322181 | 21.67° C | 75% | 1000.3 hPa | 0 mm | - | 164 W/m² | - |
| 1777321878 | 21.67° C | 74% | 1000 hPa | 0 mm | - | 180 W/m² | - |
| 1777321575 | 21.67° C | 74% | 1000 hPa | 0 mm | - | 121 W/m² | - |
| 1777321272 | 21.67° C | 74% | 1000 hPa | 0 mm | - | 186 W/m² | - |
| 1777320969 | 21.67° C | 74% | 1000.2 hPa | 0 mm | - | 253 W/m² | - |
| 1777320667 | 21.67° C | 74% | 999.9 hPa | 0 mm | - | 219 W/m² | - |
| 1777320364 | 21.67° C | 74% | 1000 hPa | 0 mm | - | 219 W/m² | - |
| 1777320060 | 21.67° C | 74% | 1000.3 hPa | 0 mm | - | 224 W/m² | - |
| 1777319757 | 21.67° C | 73% | 999.9 hPa | 0 mm | - | 194 W/m² | - |
| 1777319454 | 21.67° C | 73% | 1000.2 hPa | 0 mm | - | 158 W/m² | - |
* Rain latest hour (hover to see other rain measurements)
** Current wind speed in m/s (hover to see current wind gust speed)